| time (UTC) | temp F | wind direction | speed knots | gust knots | rain 1hr in | rain 24hr in | rain mn in | humidity % | barometer mb |
| 20260505124528 | 31 | 326 | 0.0 | 3.5 | 0.00 | 0.00 | 0.00 | 71 | 1016.1 |
| 20260505123017 | 31 | 249 | 0.9 | 1.7 | 0.00 | 0.00 | 0.00 | 71 | 1015.8 |
| 20260505121506 | 31 | 227 | 2.6 | 4.3 | 0.00 | 0.00 | 0.00 | 70 | 1015.7 |
| 20260505120008 | 33 | 82 | 0.0 | 1.7 | 0.00 | 0.00 | 0.00 | 67 | 1015.6 |
| 20260505114527 | 33 | 88 | 1.7 | 2.6 | 0.00 | 0.00 | 0.00 | 66 | 1015.5 |
| 20260505113016 | 33 | 82 | 1.7 | 2.6 | 0.00 | 0.00 | 0.00 | 67 | 1015.4 |
| 20260505111518 | 34 | 135 | 2.6 | 3.5 | 0.00 | 0.00 | 0.00 | 64 | 1015.5 |
| 20260505101521 | 36 | 91 | 1.7 | 3.5 | 0.00 | 0.00 | 0.00 | 61 | 1015.9 |
| 20260505100029 | 36 | 88 | 1.7 | 2.6 | 0.00 | 0.00 | 0.00 | 60 | 1015.9 |
| 20260505094506 | 36 | 90 | 1.7 | 3.5 | 0.00 | 0.00 | 0.00 | 61 | 1015.8 |
| 20260505093010 | 36 | 80 | 1.7 | 2.6 | 0.00 | 0.00 | 0.00 | 63 | 1015.8 |
| 20260505091516 | 37 | 113 | 0.9 | 2.6 | 0.00 | 0.00 | 0.00 | 63 | 1015.8 |
| 20260505090031 | 37 | 99 | 0.9 | 2.6 | 0.00 | 0.00 | 0.00 | 63 | 1016.1 |
| 20260505084530 | 37 | 117 | 0.9 | 3.5 | 0.00 | 0.00 | 0.00 | 64 | 1016.1 |
| 20260505083009 | 36 | 137 | 1.7 | 5.2 | 0.00 | 0.00 | 0.00 | 66 | 1016.1 |
| 20260505081514 | 37 | 108 | 2.6 | 2.6 | 0.00 | 0.00 | 0.00 | 65 | 1016.2 |
| 20260505080028 | 37 | 121 | 0.0 | 1.7 | 0.00 | 0.00 | 0.00 | 64 | 1016.3 |
| 20260505074521 | 37 | 131 | 1.7 | 1.7 | 0.00 | 0.00 | 0.00 | 66 | 1016.2 |
| 20260505073024 | 38 | 184 | 0.0 | 4.3 | 0.00 | 0.00 | 0.00 | 66 | 1016.2 |
| 20260505071519 | 37 | 126 | 2.6 | 5.2 | 0.00 | 0.00 | 0.00 | 67 | 1016.1 |
| 20260505070020 | 37 | 121 | 3.5 | 5.2 | 0.00 | 0.00 | 0.00 | 68 | 1016.1 |
| 20260505064520 | 38 | 126 | 1.7 | 3.5 | 0.00 | 0.00 | 0.00 | 68 | 1016.1 |
| 20260505063033 | 39 | 109 | 1.7 | 3.5 | 0.00 | 0.00 | 0.00 | 67 | 1016.1 |
| 20260505061531 | 39 | 95 | 2.6 | 5.2 | 0.00 | 0.00 | 0.00 | 65 | 1016.1 |
| 20260505060013 | 40 | 88 | 0.9 | 3.5 | 0.00 | 0.00 | 0.00 | 61 | 1016.1 |
| 20260505054522 | 41 | 121 | 0.0 | 1.7 | 0.00 | 0.00 | 0.00 | 61 | 1016.0 |
| 20260505053022 | 41 | 83 | 0.9 | 2.6 | 0.00 | 0.00 | 0.00 | 60 | 1015.9 |
| 20260505051523 | 42 | 241 | 0.0 | 1.7 | 0.00 | 0.00 | 0.00 | 59 | 1015.9 |
| 20260505041524 | 43 | 168 | 2.6 | 7.0 | 0.00 | 0.00 | 0.00 | 61 | 1015.6 |
| 20260505040026 | 43 | 134 | 3.5 | 7.0 | 0.00 | 0.00 | 0.00 | 61 | 1015.4 |
| 20260505034526 | 44 | 162 | 5.2 | 7.8 | 0.00 | 0.00 | 0.00 | 60 | 1015.2 |
| 20260505033030 | 45 | 192 | 3.5 | 7.8 | 0.00 | 0.00 | 0.00 | 57 | 1015.0 |
| 20260505031504 | 46 | 167 | 4.3 | 8.7 | 0.00 | 0.00 | 0.00 | 56 | 1014.7 |
| 20260505030007 | 46 | 153 | 4.3 | 7.0 | 0.00 | 0.00 | 0.00 | 55 | 1014.5 |
| 20260505024528 | 47 | 159 | 2.6 | 6.1 | 0.00 | 0.00 | 0.00 | 54 | 1014.4 |
| 20260505023015 | 48 | 167 | 0.0 | 7.0 | 0.00 | 0.00 | 0.00 | 50 | 1014.2 |
| 20260505021541 | 48 | 173 | 4.3 | 6.1 | 0.00 | 0.00 | 0.00 | 52 | 1014.1 |
| 20260505020006 | 48 | 148 | 6.1 | 8.7 | 0.00 | 0.00 | 0.00 | 51 | 1014.0 |
| 20260505014509 | 49 | 171 | 6.1 | 9.6 | 0.00 | 0.00 | 0.00 | 50 | 1014.0 |
| 20260505013014 | 49 | 187 | 5.2 | 8.7 | 0.00 | 0.00 | 0.00 | 49 | 1013.9 |
| 20260505011521 | 50 | 165 | 7.0 | 8.7 | 0.00 | 0.00 | 0.00 | 50 | 1013.7 |
| 20260505010021 | 50 | 163 | 0.9 | 7.8 | 0.00 | 0.00 | 0.00 | 50 | 1013.7 |
| 20260505004516 | 51 | 304 | 0.0 | 2.6 | 0.00 | 0.00 | 0.00 | 51 | 1013.7 |
| 20260505003011 | 51 | 296 | 1.7 | 5.2 | 0.00 | 0.00 | 0.00 | 48 | 1013.7 |
| 20260505001517 | 51 | 294 | 1.7 | 5.2 | 0.00 | 0.00 | 0.00 | 48 | 1013.7 |
| 20260505000021 | 51 | 325 | 1.7 | 7.0 | 0.00 | 0.00 | 0.00 | 48 | 1013.6 |
| 20260504234524 | 51 | 312 | 2.6 | 10.4 | 0.00 | 0.00 | 0.00 | 48 | 1013.5 |
| 20260504233008 | 52 | 301 | 6.1 | 10.4 | 0.00 | 0.00 | 0.00 | 45 | 1013.3 |
| 20260504231514 | 52 | 256 | 7.8 | 12.2 | 0.00 | 0.00 | 0.00 | 48 | 1013.2 |
| 20260504230018 | 52 | 275 | 2.6 | 6.1 | 0.00 | 0.00 | 0.00 | 49 | 1013.3 |
| 20260504224524 | 52 | 229 | 2.6 | 7.0 | 0.00 | 0.00 | 0.00 | 49 | 1013.3 |
| 20260504223034 | 54 | 209 | 2.6 | 6.1 | 0.00 | 0.00 | 0.00 | 46 | 1013.3 |
| 20260504221512 | 56 | 272 | 1.7 | 10.4 | 0.00 | 0.00 | 0.00 | 42 | 1013.3 |
| 20260504220021 | 54 | 258 | 4.3 | 7.0 | 0.00 | 0.00 | 0.00 | 52 | 1013.5 |
| 20260504214520 | 53 | 284 | 1.7 | 3.5 | 0.00 | 0.00 | 0.00 | 50 | 1013.7 |
| 20260504213024 | 53 | 290 | 2.6 | 5.2 | 0.00 | 0.00 | 0.00 | 50 | 1013.7 |
| 20260504211529 | 53 | 314 | 0.9 | 2.6 | 0.00 | 0.00 | 0.00 | 48 | 1013.7 |
| 20260504210013 | 52 | 331 | 1.7 | 5.2 | 0.00 | 0.00 | 0.00 | 50 | 1013.7 |
| 20260504204541 | 52 | 348 | 1.7 | 3.5 | 0.00 | 0.00 | 0.00 | 50 | 1013.8 |
| 20260504203029 | 52 | 348 | 1.7 | 5.2 | 0.00 | 0.00 | 0.00 | 49 | 1013.7 |
| 20260504201526 | 53 | 352 | 1.7 | 6.1 | 0.00 | 0.00 | 0.00 | 47 | 1013.6 |
| 20260504200029 | 53 | 254 | 1.7 | 3.5 | 0.00 | 0.00 | 0.00 | 48 | 1013.7 |
| 20260504194516 | 53 | 221 | 1.7 | 4.3 | 0.00 | 0.00 | 0.00 | 45 | 1013.7 |
| 20260504193021 | 54 | 269 | 1.7 | 6.1 | 0.00 | 0.00 | 0.00 | 44 | 1013.8 |
| 20260504191525 | 55 | 32 | 1.7 | 7.0 | 0.00 | 0.00 | 0.00 | 44 | 1014.0 |
| 20260504190036 | 54 | 26 | 0.9 | 4.3 | 0.00 | 0.00 | 0.00 | 44 | 1014.0 |
| 20260504184535 | 54 | 245 | 1.7 | 7.0 | 0.00 | 0.00 | 0.00 | 44 | 1014.1 |
| 20260504183022 | 53 | 182 | 4.3 | 8.7 | 0.00 | 0.00 | 0.00 | 46 | 1014.2 |
| 20260504181524 | 53 | 90 | 1.7 | 6.1 | 0.00 | 0.00 | 0.00 | 49 | 1014.3 |
| 20260504180008 | 51 | 209 | 2.6 | 7.8 | 0.00 | 0.00 | 0.00 | 45 | 1014.5 |
| 20260504174513 | 52 | 126 | 2.6 | 10.4 | 0.00 | 0.00 | 0.00 | 46 | 1014.6 |
| 20260504173016 | 51 | 296 | 1.7 | 8.7 | 0.00 | 0.00 | 0.00 | 47 | 1014.6 |
| 20260504171528 | 51 | 108 | 0.9 | 7.8 | 0.00 | 0.00 | 0.00 | 46 | 1014.7 |